User: anonymous   Login
Location: Shepherdstown, WV
(39.4326°N, 77.8042°W)
Time: 15:17:05
(UTC-04:00)
Language:

Tiros 1 despin weight - Orbit

View from above orbital plane
View from above orbital plane
View from above satellite
View from above satellite

Ground track
Ground track

The orbit data is extracted from the following two-line orbital elements,

1   115U 60002D   21208.06240688  .00000071  00000-0  35364-4 0  9995
2   115  48.1665 128.3265 0034806 233.5214 126.2490 14.83799179273056
Epoch (UTC): 27 July 2021 01:29:51
Eccentricity: 0.0034806
inclination: 48.1665°
perigee height: 593 km
apogee height: 642 km
right ascension of ascending node: 128.3265°
argument of perigee: 233.5214°
revolutions per day: 14.83799179
mean anomaly at epoch: 126.2490°
orbit number at epoch: 27305

The dashed part of the orbit path shows where the satellite is in the earth's shadow,  

DLR